Home > Weather > Metlakatla > Past weeks

Flag for USA Past Weather in Metlakatla, Alaska, USA — Yesterday and Last 2 Weeks

Now
61 °F

Mostly cloudy.


Feels Like: 61 °F
Forecast: 56 / 67 °F
Wind: 6 mph from Northwest

Location: Metlakatla - Metlakatla Seaplane Base

Current Time: Jul 29, 2016 at 6:07:34 PM

Latest Report: Jul 29, 2016 at 5:36 PM


Visibility: 9 mi

Pressure: 30.21 "Hg

Humidity: 68%

Dew Point: 50 °F

Location of MetlakatlaLocation

Past Weather in Metlakatla — Graph

°F

Metlakatla Temperature Yesterday

Maximum temperature yesterday: 73 °F (at 2:36 PM)
Minimum temperature yesterday: 59 °F (at 1:16 AM)
Average temperature yesterday: 64 °F

High & Low Weather Summary for the Past Weeks

 TemperatureHumidityPressure
High81 °F (Jul 17, 5:16 PM)94% (Jul 18, 5:36 AM)30.33 "Hg (Jul 18, 5:36 AM)
Low55 °F (Jul 22, 4:56 AM)48% (Jul 18, 5:56 PM)29.86 "Hg (Jul 18, 4:56 PM)
Average62 °F78%30.14 "Hg
* Reported Jul 14 8:16 PM — Jul 29 4:56 PM, Metlakatla, Weather by CustomWeather, © 2016

Note: Actual official high and low records may vary slightly from our data, if they occured in-between our weather recording intervals... More about our weather records

Advertising

Metlakatla Weather History for the Previous 24 Hours

Scroll right to see more
 ConditionsComfort  
Time TempWeatherWind HumidityBarometerVisibility
4:56 PM
Fri, Jul 29
64 °FMostly cloudy.10 mph64%30.22 "Hg10 mi
4:36 PM63 °FMostly cloudy.10 mph68%30.22 "Hg10 mi
4:16 PM63 °FOvercast.10 mph68%30.22 "Hg10 mi
3:56 PM64 °FOvercast.12 mph64%30.22 "Hg10 mi
3:36 PM64 °FMostly cloudy.8 mph64%30.23 "Hg10 mi
3:16 PM63 °FBroken clouds.8 mph68%30.23 "Hg10 mi
2:56 PM64 °FBroken clouds.9 mph64%30.23 "Hg10 mi
2:36 PM63 °FMore clouds than sun.9 mph68%30.24 "Hg10 mi
2:16 PM61 °FMostly cloudy.10 mph72%30.24 "Hg10 mi
1:56 PM63 °FOvercast.12 mph59%30.24 "Hg10 mi
1:36 PM63 °FMostly cloudy.12 mph59%30.24 "Hg10 mi
1:16 PM64 °FMostly cloudy.12 mph60%30.24 "Hg10 mi
12:56 PM64 °FMostly cloudy.5 mph64%30.24 "Hg10 mi
12:36 PM64 °FOvercast.10 mph64%30.24 "Hg10 mi
12:16 PM64 °FOvercast.8 mph64%30.24 "Hg10 mi
11:56 AM66 °FPartly sunny.8 mph56%30.24 "Hg10 mi
11:36 AM68 °FPassing clouds.6 mph60%30.24 "Hg10 mi
11:16 AM66 °FScattered clouds.3 mph60%30.24 "Hg10 mi
10:56 AM66 °FPartly sunny.3 mph64%30.24 "Hg10 mi
10:36 AM64 °FScattered clouds.3 mph64%30.24 "Hg10 mi
10:16 AM64 °FOvercast.6 mph64%30.25 "Hg10 mi
9:56 AM63 °FOvercast.No wind73%30.25 "Hg10 mi
9:36 AM61 °FMore clouds than sun.No wind77%30.25 "Hg10 mi
9:16 AM61 °FMore clouds than sun.5 mph72%30.25 "Hg10 mi
8:56 AM59 °FOvercast.3 mph82%30.24 "Hg10 mi
8:36 AM59 °FCloudy.8 mph77%30.24 "Hg10 mi
8:16 AM59 °FOvercast.13 mph72%30.24 "Hg10 mi
7:36 AM59 °FOvercast.13 mph68%30.24 "Hg10 mi
7:16 AM59 °FOvercast.10 mph72%30.24 "Hg10 mi
6:56 AM59 °FOvercast.10 mph72%30.24 "Hg10 mi
6:36 AM59 °FOvercast.10 mph72%30.24 "Hg10 mi
6:16 AM59 °FOvercast.8 mph68%30.24 "Hg10 mi
5:56 AM57 °FOvercast.No wind82%30.24 "Hg10 mi
5:36 AM57 °FOvercast.5 mph82%30.24 "Hg10 mi
5:16 AM57 °FOvercast.8 mph72%30.24 "Hg10 mi
4:56 AM57 °FOvercast.6 mph72%30.24 "Hg10 mi
4:36 AM57 °FOvercast.5 mph77%30.24 "Hg10 mi
4:16 AM59 °FOvercast.6 mph68%30.23 "Hg10 mi
3:56 AM57 °FOvercast.9 mph72%30.23 "Hg10 mi
3:36 AM57 °FOvercast.7 mph72%30.24 "Hg10 mi
3:16 AM57 °FOvercast.6 mph77%30.24 "Hg10 mi
2:56 AM57 °FOvercast.5 mph77%30.24 "Hg10 mi
2:36 AM57 °FOvercast.No wind77%30.24 "Hg10 mi
2:16 AM59 °FMostly cloudy.3 mph77%30.24 "Hg10 mi
1:56 AM59 °FMostly cloudy.3 mph77%30.25 "Hg10 mi
1:36 AM59 °FMostly cloudy.6 mph77%30.25 "Hg10 mi
1:16 AM59 °FPassing clouds.9 mph77%30.25 "Hg10 mi
12:56 AM59 °FPassing clouds.8 mph77%30.25 "Hg10 mi
12:36 AM59 °FPassing clouds.9 mph72%30.25 "Hg10 mi
12:16 AM61 °FOvercast.10 mph72%30.25 "Hg10 mi
11:56 PM
Thu, Jul 28
61 °FOvercast.9 mph72%30.25 "Hg10 mi
11:36 PM61 °FMostly cloudy.9 mph72%30.25 "Hg10 mi
11:16 PM59 °FMostly cloudy.8 mph77%30.25 "Hg10 mi
10:56 PM61 °FMostly cloudy.3 mph77%30.25 "Hg10 mi
10:36 PM61 °FMostly cloudy.6 mph72%30.25 "Hg10 mi
10:16 PM61 °FPartly cloudy.7 mph72%30.24 "Hg10 mi
9:56 PM61 °FPartly cloudy.6 mph77%30.24 "Hg10 mi
9:36 PM61 °FPartly sunny.No wind77%30.24 "Hg10 mi
9:16 PM61 °FMostly cloudy.5 mph77%30.24 "Hg10 mi
8:56 PM61 °FCloudy.6 mph83%30.23 "Hg10 mi
8:36 PM61 °FMostly cloudy.9 mph77%30.23 "Hg10 mi
8:16 PM63 °FPartly sunny.14 mph73%30.23 "Hg10 mi
7:56 PM63 °FPartly sunny.14 mph68%30.23 "Hg10 mi
7:36 PM63 °FBroken clouds.7 mph68%30.23 "Hg10 mi
7:16 PM64 °FBroken clouds.6 mph64%30.23 "Hg10 mi
6:56 PM66 °FScattered clouds.9 mph60%30.23 "Hg10 mi
6:36 PM68 °FSunny.9 mph64%30.23 "Hg10 mi
6:16 PM68 °FScattered clouds.7 mph64%30.23 "Hg10 mi
Weather by CustomWeather, © 2016

See weather overviewHow to use our weather pages